[TLELIST] Archives

 

[list_settings.list_name] Current TLEs

June 26th 2013 PDT

HST 1 20580U 90037B 13176.56815058 .00001079 00000-0 64585-4 0 2688 2 20580 028.4687 217.8854 0003427 077.4603 052.5554 15.03715961 70966 ISS (ZARYA) 1 25544U 98067A 13177.22322208 .00013203 00000-0 23515-3 0 696 2 25544 051.6504 063.5483 0008860 098.0201 048.3198 15.50426514836108 CXO 1 25867U 99040B 13178.49950110 -.00000884 00000-0 00000+0 0 9179 2 25867 075.5004 338.8810 8549574 277.3877 000.0865 00.37801071 10574 ____________________________________________________________________ These 2-Line ...Continue Reading

[list_settings.list_name] Current TLEs

June 22nd 2013 PDT

HST 1 20580U 90037B 13171.65591720 .00001319 00000-0 81726-4 0 2649 2 20580 028.4691 250.0910 0003448 029.4794 096.4576 15.03703717 70220 ISS (ZARYA) 1 25544U 98067A 13173.45620370 .00010839 00000-0 19521-3 0 478 2 25544 051.6500 082.2194 0009005 085.9487 261.4669 15.50326908835515 CXO 1 25867U 99040B 13173.20934380 -.00000814 00000-0 00000+0 0 9155 2 25867 075.4668 339.2060 8557228 277.3765 000.2092 00.37798976 10553 ____________________________________________________________________ These 2-Line ...Continue Reading

[list_settings.list_name] Current TLEs

June 19th 2013 PDT

HST 1 20580U 90037B 13167.74008509 .00000891 00000-0 51223-4 0 2634 2 20580 028.4696 275.7628 0003325 350.3355 136.2094 15.03692199 69630 ISS (ZARYA) 1 25544U 98067A 13169.97780443 .00006593 00000-0 11158-3 0 311 2 25544 051.6465 099.4660 0010504 083.1100 277.1602 15.50858990834983 CXO 1 25867U 99040B 13167.95214946 .00000000 00000-0 10000-3 0 9172 2 25867 075.4216 339.5445 8555792 277.4241 004.5553 00.37808350 10531 ____________________________________________________________________ These 2-Line ...Continue Reading

[list_settings.list_name] Current TLEs

June 18th 2013 PDT

HST 1 20580U 90037B 13167.74008509 .00000891 00000-0 51223-4 0 2634 2 20580 028.4696 275.7628 0003325 350.3355 136.2094 15.03692199 69630 ISS (ZARYA) 1 25544U 98067A 13169.41606681 .00008684 00000-0 15503-3 0 277 2 25544 051.6484 102.2445 0010789 082.0187 019.9694 15.50858396834899 CXO 1 25867U 99040B 13170.56148825 -.00000864 00000-0 00000+0 0 9146 2 25867 075.4499 339.3790 8558616 277.3685 359.8991 00.37801871 10548 ____________________________________________________________________ These 2-Line ...Continue Reading

[list_settings.list_name] Current TLEs

June 17th 2013 PDT

HST 1 20580U 90037B 13167.74008509 .00000891 00000-0 51223-4 0 2634 2 20580 028.4696 275.7628 0003325 350.3355 136.2094 15.03692199 69630 ISS (ZARYA) 1 25544U 98067A 13168.45031449 .00002097 00000-0 43542-4 0 215 2 25544 051.6489 107.0381 0010836 078.4846 028.0819 15.50830414834745 CXO 1 25867U 99040B 13170.56148825 -.00000864 00000-0 00000+0 0 9146 2 25867 075.4499 339.3790 8558616 277.3685 359.8991 00.37801871 10548 ____________________________________________________________________ These 2-Line ...Continue Reading

[list_settings.list_name] Current TLEs

June 15th 2013 PDT

HST 1 20580U 90037B 13164.82067074 .00000873 00000-0 49945-4 0 2618 2 20580 028.4702 294.9015 0003188 319.4536 172.3240 15.03686362 69195 ISS (ZARYA) 1 25544U 98067A 13166.39516752 .00005696 00000-0 10469-3 0 96 2 25544 051.6483 117.2276 0010825 072.4534 072.7331 15.50796619834429 CXO 1 25867U 99040B 13167.91734866 -.00000768 00000-0 00000+0 0 9139 2 25867 075.4316 339.5610 8558537 277.3731 000.0303 00.37801263 10539 ____________________________________________________________________ These 2-Line ...Continue Reading

[list_settings.list_name] Current TLEs

June 13th 2013 PDT

HST 1 20580U 90037B 13163.75160075 .00001016 00000-0 60157-4 0 2601 2 20580 028.4704 301.9100 0003138 308.2990 144.9090 15.03683637 69028 ISS (ZARYA) 1 25544U 98067A 13164.39636279 .00004675 00000-0 87437-4 0 9940 2 25544 051.6480 127.1401 0010899 064.5245 074.3126 15.50769938834118 CXO 1 25867U 99040B 13165.27493085 -.00000694 00000-0 00000+0 0 9128 2 25867 075.4140 339.7134 8558529 277.4048 000.3084 00.37796840 10522 ____________________________________________________________________ These 2-Line ...Continue Reading

[list_settings.list_name] Current TLEs

June 12th 2013 PDT

HST 1 20580U 90037B 13162.48470855 .00000964 00000-0 56477-4 0 2599 2 20580 028.4705 310.2153 0003074 294.8892 126.7817 15.03681847 68834 ISS (ZARYA) 1 25544U 98067A 13163.43047921 .00005127 00000-0 95135-4 0 9873 2 25544 051.6478 131.9305 0010950 060.9715 082.0154 15.50761678833963 CXO 1 25867U 99040B 13165.27493085 -.00000694 00000-0 00000+0 0 9128 2 25867 075.4140 339.7134 8558529 277.4048 000.3084 00.37796840 10522 ____________________________________________________________________ These 2-Line ...Continue Reading

[list_settings.list_name] Current TLEs

June 11th 2013 PDT

HST 1 20580U 90037B 13160.84092019 .00000970 00000-0 56894-4 0 2588 2 20580 028.4706 320.9915 0003000 277.6632 228.2284 15.03678845 68592 ISS (ZARYA) 1 25544U 98067A 13162.39826804 .00005762 00000-0 10596-3 0 9807 2 25544 051.6470 137.0480 0010802 057.6177 079.0226 15.50752655833801 CXO 1 25867U 99040B 13162.62983837 -.00000755 00000-0 00000+0 0 9110 2 25867 075.3927 339.8530 8561081 277.4468 000.1821 00.37795970 10517 ____________________________________________________________________ These 2-Line ...Continue Reading

[list_settings.list_name] Current TLEs

June 10th 2013 PDT

HST 1 20580U 90037B 13160.84092019 .00000970 00000-0 56894-4 0 2588 2 20580 028.4706 320.9915 0003000 277.6632 228.2284 15.03678845 68592 ISS (ZARYA) 1 25544U 98067A 13161.48833453 .00006832 00000-0 12419-3 0 9731 2 25544 051.6462 141.5597 0010629 054.3859 039.0289 15.50744777833664 CXO 1 25867U 99040B 13162.62983837 -.00000755 00000-0 00000+0 0 9110 2 25867 075.3927 339.8530 8561081 277.4468 000.1821 00.37795970 10517 ____________________________________________________________________ These 2-Line ...Continue Reading
  • This mailing list is a public mailing list - anyone may join or leave, at any time.
  • This mailing list is announce-only.

International Space Station (ISS) / Hubble Space Telescope (HST) / Chandra X-Ray Observatory Orbital Data via EMAIL

Privacy Policy:

Private list